Location: Peralejo
(40.5415°N, 4.1259°W)
Time: 06:42:35
(UTC+00:00)

ADEOS - Pass Details

Date: 18 April 2024
Orbit: 790 x 793 km, 98.9° (Epoch: 22 May)

Event Time Altitude Azimuth Distance (km) Brightness Sun altitude
Rises 19:21:19 0° 172° (S) 3,278 6.5 -4.8°
Reaches altitude 10° 19:23:39 10° 175° (S) 2,353 5.8 -5.2°
Maximum altitude 19:28:49 66° 258° (WSW) 865 4.1 -6.2°
Drops below altitude 10° 19:34:01 10° 340° (NNW) 2,369 6.7 -7.1°
Sets 19:36:23 0° 344° (NNW) 3,303 7.4 -7.5°
